[[{"header":{"parameterUnit":"m.s-1","parameterCategory":1,"la1":30.2992,"la2":30.254,"lo1":-89.0895,"lo2":-89.0443,"dy":0.0025,"dx":0.0025,"nx":19,"ny":19,"refTime":"2026-03-18T21:00:00:Z","depth":0,"parameterNumber":2,"parameterNumberName":"U-component_of_WINDS"},"data":[0,0,0,-0.3012,-0.3012,-0.2981,-0.2981,-0.2965,-0.2965,0,0,0,0,0,0,0,0,0,0,0,-0.3034,-0.3035,-0.3012,-0.3012,-0.2981,-0.2981,-0.2965,-0.2965,0,0,0,0,0,0,0,0,0,0,0,-0.3034,-0.3035,-0.3035,-0.3012,-0.2981,-0.2981,-0.2965,-0.298,0,0,0,0,0,0,0,0,0,0,-0.3006,-0.3038,-0.3034,-0.3035,-0.3012,-0.2981,-0.2981,-0.298,-0.2979,-0.2988,0,-0.2999,0,-0.2982,-0.2965,-0.2965,0,0,0,-0.3003,-0.304,-0.302,-0.3035,-0.3012,-0.2981,-0.2992,-0.2979,-0.2978,-0.2987,-0.2998,-0.2997,-0.2981,-0.2965,-0.2965,-0.305,-0.3051,0,0,-0.3004,-0.3036,-0.3021,-0.3019,-0.3024,-0.2993,-0.2991,-0.2978,-0.2993,-0.2998,-0.2997,-0.2981,-0.2965,-0.2965,-0.3049,-0.305,0,0,0,-0.3016,-0.3037,-0.3017,-0.3021,-0.3013,-0.2993,-0.299,-0.2994,-0.2985,-0.2996,-0.2981,-0.2965,-0.2965,-0.3048,-0.305,-0.3123,0,0,0,-0.3016,-0.3044,-0.3018,-0.3037,-0.3014,-0.3003,-0.3007,-0.2985,-0.2983,-0.2981,-0.2965,-0.2965,-0.3047,-0.3049,-0.3119,-0.3153,0,0,0,-0.3032,-0.3045,-0.3045,-0.3039,-0.3027,-0.3002,-0.2992,-0.2984,-0.2974,-0.2965,-0.2965,-0.3047,-0.3049,-0.3115,-0.3147,-0.3187,0,0,0,-0.3058,-0.3109,-0.3047,-0.3099,-0.3027,-0.3047,-0.2992,-0.3005,-0.3005,-0.2965,-0.3047,-0.305,-0.3114,-0.3143,-0.3183,-0.3227,-0.3248,0,0,-0.314,-0.312,-0.3148,-0.3092,-0.3131,-0.3049,-0.31,-0.307,-0.304,-0.3049,-0.3051,-0.312,-0.3146,-0.3186,-0.335,-0.3367,0,0,0,-0.3185,-0.3206,-0.321,-0.3212,-0.3191,-0.3177,-0.3137,-0.3127,-0.3132,-0.3051,-0.3143,-0.3158,-0.318,-0.32,-0.3214,-0.3232,-0.3059,-0.3059,-0.3059,-0.3347,-0.3307,-0.3352,-0.331,-0.3313,-0.3272,-0.3272,-0.3251,-0.3209,-0.3232,-0.3235,-0.3339,-0.3363,-0.3374,-0.3393,-0.3253,-0.3253,-0.3253,-0.3254,-0.3466,-0.3491,-0.3435,-0.3459,-0.3417,-0.3437,-0.3401,-0.3371,-0.3385,-0.3333,-0.335,-0.3298,-0.3393,-0.3409,-0.3259,-0.3258,-0.3257,-0.3257,-0.3256,-0.3569,-0.3574,-0.3561,-0.3563,-0.3569,-0.3524,-0.3541,-0.3502,-0.3465,-0.3482,-0.3483,-0.3482,-0.3477,-0.3485,-0.3485,-0.3486,-0.3486,-0.3486,-0.3486,-0.3683,-0.3665,-0.3684,-0.3668,-0.3667,-0.3659,-0.3621,-0.3619,-0.3606,-0.3577,-0.3576,-0.3535,-0.3409,-0.338,-0.3492,-0.3491,-0.349,-0.349,-0.3489,-0.3821,-0.3784,-0.3813,-0.3811,-0.3792,-0.3803,-0.3752,-0.3752,-0.3744,-0.3755,-0.3709,-0.3622,-0.3599,-0.3587,-0.3563,-0.3715,-0.3715,-0.3715,-0.3715,-0.391,-0.3894,-0.3917,-0.3918,-0.3914,-0.3872,-0.391,-0.3882,-0.3848,-0.3841,-0.3813,-0.3777,-0.3767,-0.375,-0.3735,-0.3712,-0.3899,-0.3899,-0.3899,-0.3994,-0.3977,-0.4015,-0.3981,-0.3963,-0.395,-0.3985,-0.399,-0.3943,-0.3906,-0.3836,-0.3829,-0.377,-0.3752,-0.3714,-0.3691,-0.3648,0,0]},{"header":{"parameterUnit":"m.s-1","parameterCategory":1,"la1":30.2992,"la2":30.254,"lo1":-89.0895,"lo2":-89.0443,"dy":0.0025,"dx":0.0025,"nx":19,"ny":19,"refTime":"2026-03-18T21:00:00:Z","depth":0,"parameterNumber":3,"parameterNumberName":"V-component_of_WINDS"},"data":[0,0,0,2.0641,2.0639,2.0544,2.0544,2.0416,2.0415,0,0,0,0,0,0,0,0,0,0,0,2.0667,2.0666,2.0641,2.0638,2.0544,2.0544,2.0416,2.0414,0,0,0,0,0,0,0,0,0,0,0,2.0668,2.0667,2.0666,2.0638,2.0544,2.0544,2.0416,2.0489,0,0,0,0,0,0,0,0,0,0,2.0582,2.0606,2.0667,2.0666,2.0638,2.0544,2.0544,2.0493,2.0485,2.0456,0,2.0434,0,2.0422,2.0406,2.0405,0,0,0,2.0638,2.0613,2.0589,2.0665,2.0637,2.0545,2.0587,2.0488,2.0479,2.0445,2.0432,2.0427,2.042,2.0405,2.0404,2.0249,2.0249,0,0,2.0643,2.0649,2.0595,2.0583,2.0601,2.059,2.0584,2.0483,2.0467,2.0432,2.0424,2.0418,2.0404,2.0403,2.025,2.0249,0,0,0,2.0658,2.0652,2.0631,2.0588,2.0572,2.0587,2.058,2.0471,2.0464,2.0423,2.0417,2.0403,2.0402,2.0251,2.025,2.0219,0,0,0,2.0662,2.0661,2.0633,2.0635,2.0574,2.0521,2.0571,2.0471,2.046,2.0417,2.0403,2.04,2.0251,2.025,2.0221,2.0202,0,0,0,2.0674,2.0663,2.0649,2.0636,2.0596,2.0523,2.051,2.0469,2.0456,2.0405,2.04,2.0252,2.025,2.0224,2.0206,2.0161,0,0,0,2.0687,2.0622,2.0649,2.0573,2.0597,2.0507,2.051,2.0442,2.0395,2.0403,2.0251,2.025,2.0224,2.0208,2.0164,2.0123,2.0108,0,0,2.0607,2.0612,2.0568,2.0589,2.0495,2.0521,2.0421,2.0371,2.036,2.0286,2.0282,2.0221,2.0206,2.0162,2.0024,2.0012,0,0,0,2.0544,2.0511,2.0486,2.0443,2.0407,2.0372,2.0338,2.032,2.0257,2.0325,2.0194,2.0185,2.0159,2.0139,2.0128,2.0104,2.0242,2.0242,2.0242,2.0435,2.0428,2.0353,2.0334,2.0292,2.0259,2.0224,2.0193,2.0195,2.0165,2.0141,2.0059,2.0036,2.0028,2.0003,2.0122,2.0122,2.0122,2.0121,2.0315,2.0267,2.0275,2.0205,2.0196,2.0136,2.0101,2.0105,2.0045,2.0076,2.0052,2.0083,2.0015,1.9992,2.0119,2.0119,2.012,2.012,2.012,2.024,2.0216,2.0198,2.0136,2.0088,2.0071,2.0014,2.0009,2.0002,1.9979,1.9952,1.9953,1.995,1.9968,1.9968,1.9967,1.9967,1.9967,1.9967,2.0169,2.015,2.0104,2.0061,2.0033,1.9995,1.9963,1.9933,1.9899,1.9899,1.9899,1.9902,2.0012,2.0037,1.9962,1.9963,1.9964,1.9964,1.9964,2.0044,2.0072,2.0001,1.9973,1.9922,1.9874,1.987,1.9812,1.9787,1.9758,1.9769,1.9852,1.9855,1.9863,1.9883,1.9773,1.9773,1.9773,1.9773,1.9978,1.9982,1.9908,1.9864,1.982,1.9809,1.9726,1.97,1.9676,1.966,1.9676,1.9705,1.9714,1.9711,1.9722,1.9741,1.9597,1.9597,1.9597,1.9899,1.9898,1.983,1.9811,1.9771,1.9736,1.9657,1.9603,1.9582,1.9589,1.9646,1.9653,1.97,1.9716,1.972,1.9738,1.9773,0,0]}]]